Signal Hill, CA

11:05 AM PST on February 20, 2017 (GMT -0800)
Long Beach

Weather History for KLGB - December, 2012

Change the Weather History Date:

Thursday, December 13, 2012

  Actual Average Record
Temperature  
Mean Temperature 57 °F 56 °F  
Max Temperature 61 °F 67 °F 80 °F (1998)
Min Temperature 53 °F 46 °F 35 °F (1985)
Degree Days  
Heating Degree Days 8 9  
Month to date heating degree days 58 108  
Since 1 July heating degree days 135 257  
Cooling Degree Days 0 0  
Month to date cooling degree days 0 0  
Year to date cooling degree days 1383 1125  
Growing Degree Days 7 (Base 50)    
Moisture  
Dew Point 48 °F    
Average Humidity 72    
Maximum Humidity 93    
Minimum Humidity 51    
Precipitation  
Precipitation 0.13 in 0.06 in 0.85 in (1995)
Month to date precipitation 0.91 0.70  
Year to date precipitation 6.72 11.01  
Since 1 July precipitation 2.31  
Sea Level Pressure  
Sea Level Pressure 29.79 in    
Wind  
Wind Speed 4 mph (WSW)    
Max Wind Speed 21 mph    
Max Gust Speed -    
Visibility 9 miles    
Events Rain    
T = Trace of Precipitation, MM = Missing Value Source: NWS Daily Summary

Daily Weather History Graph

Daily Weather History Graph

Search for Another Location

Airport or City:

Trip Planner

Search our weather history database for the weather conditions in past years. The results will help you decide how hot, cold, wet, or windy it might be!

Date:

Astronomy

Dec. 13, 2012 Rise Set
Actual Time 6:49 AM PST 4:44 PM PST
Civil Twilight 6:21 AM PST 5:12 PM PST
Nautical Twilight 5:50 AM PST 5:43 PM PST
Astronomical Twilight 5:20 AM PST 6:14 PM PST
Moon 7:03 AM PST (12/13) 5:31 PM PST (12/13)
Length of Visible Light 10h 51m
Length of Day
9h 55m
New Moon, 0% of the Moon is Illuminated
Dec 13
New Moon
Dec 19
First Quarter
Dec 28
Full
Jan 4
Last Quarter
Jan 11
New

Hourly Weather History & Observations

Time (PST) Temp. Dew Point Humidity Pressure Visibility Wind Dir Wind Speed Gust Speed Precip Events Conditions
12:53 AM 57.0 °F 53.1 °F 87% 29.83 in 8.0 mi Calm Calm - 0.03 in   Overcast
1:00 AM 57.2 °F 53.6 °F 88% 29.83 in 8.0 mi Calm Calm - 0.00 in Rain Light Rain
1:53 AM 57.0 °F 54.0 °F 89% 29.82 in 10.0 mi Calm Calm - 0.00 in Rain Light Rain
2:53 AM 55.9 °F 53.1 °F 90% 29.81 in 10.0 mi ENE 3.5 mph - 0.01 in   Overcast
3:02 AM 57.2 °F 53.6 °F 88% 29.80 in 9.0 mi Calm Calm - N/A   Overcast
3:53 AM 55.9 °F 54.0 °F 93% 29.80 in 4.0 mi Calm Calm - 0.04 in Rain Rain
4:05 AM 55.4 °F 53.6 °F 94% 29.80 in 2.5 mi Calm Calm - 0.05 in Rain Rain
4:13 AM 55.4 °F 53.6 °F 94% 29.79 in 5.0 mi Calm Calm - 0.06 in Rain Light Rain
4:24 AM 55.4 °F 53.6 °F 94% 29.79 in 10.0 mi Calm Calm - 0.06 in   Overcast
4:53 AM 55.9 °F 54.0 °F 93% 29.79 in 10.0 mi Calm Calm - 0.06 in   Overcast
5:32 AM 55.4 °F 51.8 °F 88% 29.79 in 10.0 mi NW 3.5 mph - 0.00 in   Overcast
5:53 AM 55.9 °F 53.1 °F 90% 29.80 in 10.0 mi Calm Calm - 0.00 in   Overcast
6:53 AM 55.9 °F 53.1 °F 90% 29.80 in 10.0 mi Calm Calm - N/A   Overcast
7:53 AM 57.0 °F 51.1 °F 81% 29.80 in 10.0 mi NNW 3.5 mph - N/A   Overcast
8:53 AM 57.9 °F 48.9 °F 72% 29.81 in 10.0 mi SW 4.6 mph - N/A   Mostly Cloudy
9:53 AM 59.0 °F 48.0 °F 67% 29.82 in 10.0 mi Calm Calm - N/A   Mostly Cloudy
10:20 AM 59.0 °F 44.6 °F 59% 29.81 in 10.0 mi WSW 4.6 mph - N/A   Overcast
10:53 AM 60.1 °F 46.0 °F 60% 29.82 in 10.0 mi SSW 6.9 mph - N/A   Overcast
11:01 AM 60.8 °F 46.4 °F 59% 29.82 in 10.0 mi SSW 6.9 mph - N/A   Mostly Cloudy
11:53 AM 59.0 °F 44.1 °F 58% 29.80 in 10.0 mi SW 8.1 mph - N/A   Mostly Cloudy
12:00 PM 60.8 °F 44.6 °F 55% 29.79 in 10.0 mi SSW 8.1 mph - N/A   Mostly Cloudy
12:53 PM 60.1 °F 43.0 °F 53% 29.77 in 10.0 mi West 8.1 mph - N/A   Mostly Cloudy
1:53 PM 61.0 °F 43.0 °F 52% 29.75 in 10.0 mi West 6.9 mph - N/A   Scattered Clouds
3:53 PM 60.1 °F 42.1 °F 51% 29.73 in 10.0 mi West 8.1 mph - N/A   Partly Cloudy
4:53 PM 57.2 °F 39.2 °F 51% 29.74 in 10.0 mi West 3.5 mph - N/A   Clear
5:53 PM 55.9 °F 42.1 °F 60% 29.75 in 10.0 mi West 4.6 mph - N/A   Partly Cloudy
6:53 PM 55.9 °F 42.1 °F 60% 29.76 in 10.0 mi WNW 4.6 mph - N/A   Partly Cloudy
7:53 PM 54.0 °F 41.0 °F 62% 29.75 in 10.0 mi Calm Calm - N/A   Clear
8:53 PM 55.0 °F 41.0 °F 59% 29.76 in 10.0 mi WSW 4.6 mph - N/A   Clear
9:53 PM 55.4 °F 42.8 °F 63% 29.76 in 10.0 mi WSW 4.6 mph - N/A   Scattered Clouds
10:53 PM 55.0 °F 43.0 °F 64% 29.76 in 10.0 mi WSW 5.8 mph - N/A   Clear
11:53 PM 54.0 °F 43.0 °F 66% 29.75 in 10.0 mi Calm Calm - N/A   Partly Cloudy